Regional Weather Roundup
Issued by NWS New Orleans/Baton Rouge, LA

Home | Current Version | Previous Version | Graphics & Text | Print | Product List | Glossary On
Versions: 1 2 3 4 5 6 7 8 9 10 11 12 13 14 15 16 17 18 19 20 21 22 23 24 25 26 27 28 29 30 31 32 33 34 35 36 37 38 39 40 41 42 43 44 45 46 47 48 49 50
475
ASUS44 KLIX 212005
RWRLIX
NEW ORLEANS REGIONAL WEATHER ROUNDUP
NATIONAL WEATHER SERVICE NEW ORLEANS LA
300 PM CDT TUE OCT 21 2014

NOTE: "FAIR" INDICATES FEW OR NO CLOUDS BELOW 12,000 FEET WITH NO
      SIGNIFICANT WEATHER AND/OR OBSTRUCTIONS TO VISIBILITY.
      SKY/WX - SKY CONDITION AND SIGNIFICANT WEATHER.
      TMP - AIR TEMPERATURE.     DP    - DEWPOINT TEMPERATURE.
      RH  - RELATIVE HUMIDITY.   PRES  - PRESSURE.
      HI  - HEAT INDEX.          WCI   - WIND CHILL INDEX.

*  THESE STATIONS ARE NOT NWS OR FAA STATIONS AND ARE NOT UNDER
   NWS QUALITY CONTROL.

LAZ038-040-048-061>063-065>067-069-212100-
SOUTHEAST LOUISIANA

CITY           SKY/WX    TMP DP  RH WIND       PRES   REMARKS
N.O. AUDUBON     N/A     80  56  43 MISG        N/A
N.O. INTL ARPT SUNNY     78  53  41 N6        30.00F
N.O. LAKEFRONT SUNNY     79  55  43 NW5       30.00F
N.O. DOWNTOWN*   N/A     79  52  38 E3        30.00S
SLIDELL        SUNNY     81  54  39 NE8       29.98F
BATON ROUGE    SUNNY     81  54  39 NE5       30.00F
BOOTHVILLE     SUNNY     76  59  55 NE9       29.99F
BELLE CHASSE   SUNNY     79  50  36 E8        29.99F
BOGALUSA*        N/A     82  50  32 NE9       30.00F
NEW ROADS*       N/A     79  56  44 N8        30.00F
GONZALES*        N/A     81  56  41 NE5       29.99S
HAMMOND*       SUNNY     84  50  30 N5        30.00F
HOUMA*         SUNNY     81  54  39 NE9       29.98F
PORT FOURCHON* CLEAR     77  57  50 E13       30.02F

$$

MSZ070-080>082-212100-
SOUTHERN MISSISSIPPI

CITY           SKY/WX    TMP DP  RH WIND       PRES   REMARKS
MCCOMB         SUNNY     80  52  37 VRB5      30.01F
GULFPORT       SUNNY     81  54  39 NE9       29.97F
BILOXI         SUNNY     80  54  39 VRB5      29.97F
PASCAGOULA     SUNNY     81  53  37 MISG      29.97F
STENNIS ARPT*  SUNNY     81  50  34 N5        29.98F

$$

COASTAL OBSERVATIONS
LAKE AND NEARSHORE STATIONS

STATION/POSITION TIME  TEMP    WIND        PRES    WAVE
                       AIR SEA DIR/SP/G            HT/PER
                 (UTC) (F)     (DEG/KT/KT) (MB)    (FT/S)
PASCAGOULA       2000   75     200/  7/  9 1014.7
WAVELAND YACHT   2000   72     160/  5/  6 1014.5
GRAND ISLE       2000   75 76   70/ 10/ 12 1016.1
SOUTHWEST PASS   2000   84 84              1015.5
NEW CANAL        2000   73 72  360/  3/  3 1016.2
SHELL BEACH      2000   75 70   60/  6/  8 1015.5

OFFSHORE STATIONS

STATION/POSITION TIME  TEMP    WIND        PRES    WAVE
                       AIR SEA DIR/SP/G            HT/PER
                 (UTC) (F)     (DEG/KT/KT) (MB)    (FT/S)
64 S DAUPHIN ISL 1855   74 80   50/ 10/ 12 1015.7    2/ 4

$$




USA.gov is the U.S. government's official web portal to all federal, state and local government web resources and services.